El Arish, Egypt

4:54 AM EET on May 22, 2018 (GMT +0200)
El Arish

Weather History for HEAR - October, 2012

Change the Weather History Date:

Monday, October 29, 2012

  Actual Average Record
Temperature  
Mean Temperature 71 °F -  
Max Temperature 84 °F 77 °F - ()
Min Temperature 58 °F 54 °F - ()
Cooling Degree Days 6    
Growing Degree Days 21 (Base 50)    
Moisture  
Dew Point 60 °F    
Average Humidity 74    
Maximum Humidity 100    
Minimum Humidity 32    
Precipitation  
Precipitation 0.00 in 0.01 in - ()
Sea Level Pressure  
Sea Level Pressure 29.93 in    
Wind  
Wind Speed 3 mph ()    
Max Wind Speed 7 mph    
Max Gust Speed -    
Visibility 3.9 miles    
Events      
T = Trace of Precipitation, MM = Missing Value Source: Averaged Metar Reports

Daily Weather History Graph

Daily Weather History Graph

Search for Another Location

Airport or City:

Astronomy

Oct. 29, 2012 Rise Set
Actual Time 5:57 AM EET 4:58 PM EET
Civil Twilight 5:32 AM EET 5:23 PM EET
Nautical Twilight 5:04 AM EET 5:51 PM EET
Astronomical Twilight 4:36 AM EET 6:20 PM EET
Moon 4:40 PM EET (10/29) 5:28 AM EET (10/29)
Length of Visible Light 11h 50m
Length of Day
11h 00m
Full, 100% of the Moon is Illuminated
Oct 29
Full
Oct 29
Full
Nov 7
Last Quarter
Nov 14
New
Nov 20
First Quarter

Hourly Weather History & Observations

Time (EET) Temp. Heat Index Dew Point Humidity Pressure Visibility Wind Dir Wind Speed Gust Speed Precip Events Conditions
12:00 AM 62.6 °F - 60.8 °F 94% 30.01 in - South 2.3 mph - N/A   Clear
1:00 AM 60.8 °F - 59.0 °F 94% 30.01 in 5.0 mi South 3.5 mph - N/A   Unknown
2:00 AM 60 °F - 59 °F 95% 30.00 in 4 mi South 3.5 mph - -   Mist
2:00 AM 59.0 °F - 59.0 °F 100% 29.98 in 3.7 mi South 3.5 mph - N/A   Unknown
3:00 AM 59.0 °F - 59.0 °F 100% 29.98 in 2.5 mi South 4.6 mph - N/A   Mist
4:00 AM 59.0 °F - 59.0 °F 100% 29.98 in 2.5 mi South 4.6 mph - N/A   Mist
5:00 AM 57.2 °F - 57.2 °F 100% 29.98 in 2.5 mi SSW 3.5 mph - N/A   Mist
6:00 AM 59.0 °F - 57.2 °F 94% 29.98 in 2.5 mi South 4.6 mph - N/A   Mist
7:00 AM 60.8 °F - 59.0 °F 94% 29.98 in 2.5 mi SSW 2.3 mph - N/A   Mist
8:00 AM 70 °F - 64 °F 75% 29.99 in 5 mi SSE 2.3 mph - -   Mist
8:00 AM 69.8 °F - 64.4 °F 83% 29.98 in 5.0 mi SSE 2.3 mph - N/A   Unknown
9:00 AM 77.0 °F - 64.4 °F 65% 29.98 in - SE 4.6 mph - N/A   Clear
10:00 AM 80.6 °F 82.3 °F 64.4 °F 58% 29.95 in - ESE 2.3 mph - N/A   Clear
11:00 AM 82.4 °F 82.0 °F 57.2 °F 42% 29.95 in - ENE 4.6 mph - N/A   Clear
12:00 PM 82.4 °F 82.0 °F 57.2 °F 42% 29.92 in - North 4.6 mph - N/A   Clear
1:00 PM 84.2 °F 83.0 °F 55.4 °F 37% 29.89 in - North 4.6 mph - N/A   Clear
2:00 PM 83 °F - 58 °F 32% 29.89 in 6 mi North 4.6 mph - -  
2:00 PM 82.4 °F 82.0 °F 57.2 °F 42% 29.89 in - North 4.6 mph - N/A   Clear
3:00 PM 82.4 °F 82.9 °F 60.8 °F 48% 29.86 in - North 6.9 mph - N/A   Clear
4:00 PM 80.6 °F 81.8 °F 62.6 °F 54% 29.86 in - North 4.6 mph - N/A   Clear
5:00 PM 77.0 °F - 60.8 °F 57% 29.86 in - North 3.5 mph - N/A   Clear
6:00 PM 73.4 °F - 60.8 °F 65% 29.86 in - NNW 2.3 mph - N/A   Clear
7:00 PM 64.4 °F - 59.0 °F 83% 29.89 in - SSE 4.6 mph - N/A   Clear
8:00 PM 66 °F - 59 °F 72% 29.91 in 6 mi South 2.3 mph - -  
8:00 PM 66.2 °F - 59.0 °F 78% 29.89 in - South 2.3 mph - N/A   Clear
9:00 PM 64.4 °F - 59.0 °F 83% 29.89 in - SSE 4.6 mph - N/A   Clear
10:00 PM 64.4 °F - 59.0 °F 83% 29.89 in - South 4.6 mph - N/A   Clear
11:00 PM 62.6 °F - 59.0 °F 88% 29.89 in - South 2.3 mph - N/A   Clear